FIN78C EFHK-LGRP

Flight info

Callsign FIN78C
Flight time N/A
Altitude 34000
Route KOIVU DCT LARTI DCT NAVOT DCT LUTAL DCT BERIL DCT TOXAR DCT ROBTU DCT BADOR DCT NIKTI DCT MES UN139 LURUS UL995 CODIC
Aircraft A321/M-SDE3FGHIRWY/LB1

Departure

Time 2026-04-26 10:01
Airport Helsinki Vantaa Airport (EFHK)

Arrival

Time N/A
Airport Rhodes International Airport "Diagoras" (LGRP)
Time Latitude Longitude Altitude Speed Heading
2026-04-26 09:24 60.31969 24.96739 167 ft 0 kts 174°
2026-04-26 09:43 60.31972 24.96739 166 ft 3 kts 174°
2026-04-26 09:44 60.31997 24.96729 166 ft 4 kts 155°
2026-04-26 09:44 60.32015 24.96702 166 ft 4 kts 106°
2026-04-26 09:44 60.32015 24.96675 166 ft 0 kts 47°
2026-04-26 09:48 60.32018 24.96683 166 ft 3 kts 47°
2026-04-26 09:48 60.32052 24.96757 166 ft 10 kts 47°
2026-04-26 09:48 60.32100 24.96863 166 ft 11 kts 46°
2026-04-26 09:48 60.32142 24.96979 166 ft 11 kts 87°
2026-04-26 09:49 60.32087 24.97073 166 ft 11 kts 152°
2026-04-26 09:49 60.32003 24.97161 165 ft 16 kts 153°
2026-04-26 09:49 60.31883 24.97282 162 ft 22 kts 152°
2026-04-26 09:49 60.31732 24.97440 159 ft 27 kts 153°
2026-04-26 09:50 60.31550 24.97627 156 ft 31 kts 153°
2026-04-26 09:50 60.31372 24.97810 157 ft 28 kts 153°
2026-04-26 09:50 60.31200 24.97989 159 ft 27 kts 153°
2026-04-26 09:50 60.31031 24.98161 158 ft 28 kts 156°
2026-04-26 09:51 60.30855 24.98311 159 ft 27 kts 156°
2026-04-26 09:51 60.30721 24.98430 158 ft 13 kts 156°
2026-04-26 09:51 60.30669 24.98519 157 ft 11 kts 116°
2026-04-26 09:51 60.30663 24.98582 157 ft 0 kts 90°
2026-04-26 09:59 60.30663 24.98584 157 ft 1 kts 90°
2026-04-26 09:59 60.30665 24.98618 156 ft 6 kts 79°
2026-04-26 09:59 60.30701 24.98762 158 ft 8 kts 59°
2026-04-26 09:59 60.30740 24.98794 158 ft 5 kts 336°
2026-04-26 10:00 60.30770 24.98765 158 ft 6 kts 334°
2026-04-26 10:00 60.30834 24.98700 156 ft 35 kts 333°
2026-04-26 10:00 60.31263 24.98260 159 ft 99 kts 333°
2026-04-26 10:00 60.32043 24.97464 244 ft 143 kts 333°
2026-04-26 10:01 60.32913 24.96599 1034 ft 139 kts 333°
2026-04-26 10:01 60.33707 24.95371 1692 ft 152 kts 323°
2026-04-26 10:01 60.34443 24.93622 1995 ft 176 kts 310°
2026-04-26 10:01 60.34995 24.91195 2149 ft 207 kts 294°
2026-04-26 10:02 60.35145 24.88067 2391 ft 241 kts 272°
2026-04-26 10:02 60.34667 24.84693 3028 ft 261 kts 251°
2026-04-26 10:02 60.33785 24.81409 3714 ft 268 kts 250°
2026-04-26 10:02 60.32895 24.78098 4496 ft 270 kts 250°
2026-04-26 10:03 60.31998 24.74743 5241 ft 272 kts 249°
2026-04-26 10:03 60.31098 24.71379 6042 ft 273 kts 249°
2026-04-26 10:03 60.30131 24.68128 6744 ft 282 kts 236°
2026-04-26 10:03 60.28462 24.65732 7387 ft 302 kts 202°
2026-04-26 10:04 60.26393 24.64810 8054 ft 309 kts 187°
2026-04-26 10:04 60.24221 24.64762 8752 ft 313 kts 180°
2026-04-26 10:04 60.22062 24.64855 9485 ft 316 kts 179°
2026-04-26 10:04 60.19848 24.64962 10024 ft 325 kts 179°
2026-04-26 10:05 60.17505 24.65078 10172 ft 347 kts 179°
2026-04-26 10:05 60.15015 24.65195 10310 ft 368 kts 179°
2026-04-26 10:05 60.12398 24.65311 10593 ft 382 kts 179°
2026-04-26 10:05 60.09730 24.65424 11187 ft 386 kts 179°
2026-04-26 10:06 60.07041 24.65540 11859 ft 388 kts 179°
2026-04-26 10:06 60.04332 24.65660 12521 ft 390 kts 179°
2026-04-26 10:06 60.01630 24.65776 13189 ft 392 kts 180°
2026-04-26 10:06 59.98883 24.65895 13837 ft 393 kts 180°
2026-04-26 10:07 59.96162 24.66016 14475 ft 393 kts 180°
2026-04-26 10:07 59.93411 24.66142 15127 ft 394 kts 179°
2026-04-26 10:07 59.90675 24.66265 15798 ft 393 kts 180°
2026-04-26 10:07 59.87934 24.66383 16465 ft 394 kts 180°
2026-04-26 10:08 59.85196 24.66384 17113 ft 394 kts 185°
2026-04-26 10:08 59.82486 24.65607 17753 ft 393 kts 194°
2026-04-26 10:08 59.79846 24.64349 18346 ft 394 kts 194°
2026-04-26 10:08 59.77145 24.63065 18830 ft 397 kts 194°
2026-04-26 10:09 59.74444 24.61787 19284 ft 401 kts 194°
2026-04-26 10:09 59.71718 24.60507 19722 ft 405 kts 194°
2026-04-26 10:09 59.69004 24.59235 20155 ft 408 kts 194°
2026-04-26 10:09 59.66196 24.57916 20586 ft 411 kts 195°
2026-04-26 10:10 59.63444 24.56554 20987 ft 415 kts 195°
2026-04-26 10:10 59.60644 24.55107 21385 ft 418 kts 196°
2026-04-26 10:10 59.57814 24.53611 21779 ft 422 kts 196°
2026-04-26 10:10 59.54967 24.52095 22168 ft 425 kts 197°
2026-04-26 10:11 59.52101 24.50575 22532 ft 429 kts 196°
2026-04-26 10:11 59.49205 24.49056 22884 ft 433 kts 196°
2026-04-26 10:11 59.46277 24.47540 23251 ft 436 kts 197°
2026-04-26 10:11 59.43333 24.46025 23544 ft 440 kts 196°
2026-04-26 10:12 59.40359 24.44501 23830 ft 444 kts 196°
2026-04-26 10:12 59.37355 24.42962 24085 ft 448 kts 197°
2026-04-26 10:12 59.34332 24.41426 24370 ft 451 kts 196°
2026-04-26 10:12 59.31303 24.40065 24668 ft 454 kts 194°
2026-04-26 10:13 59.28194 24.38874 24948 ft 457 kts 192°
2026-04-26 10:13 59.25050 24.37806 25232 ft 461 kts 191°
2026-04-26 10:13 59.21876 24.36788 25506 ft 463 kts 191°
2026-04-26 10:13 59.18747 24.35780 25772 ft 466 kts 192°
2026-04-26 10:14 59.15482 24.34688 26044 ft 468 kts 192°
2026-04-26 10:14 59.12261 24.33565 26314 ft 471 kts 192°
2026-04-26 10:14 59.09029 24.32408 26562 ft 473 kts 193°
2026-04-26 10:14 59.05811 24.31246 26817 ft 476 kts 193°
2026-04-26 10:15 59.02521 24.30062 27073 ft 478 kts 193°
2026-04-26 10:15 58.99241 24.28886 27317 ft 481 kts 193°
2026-04-26 10:15 58.95941 24.27706 27573 ft 483 kts 193°
2026-04-26 10:15 58.92629 24.26528 27834 ft 485 kts 193°
2026-04-26 10:16 58.89304 24.25356 28128 ft 487 kts 193°
2026-04-26 10:16 58.86007 24.24205 28471 ft 487 kts 193°
2026-04-26 10:16 58.82628 24.23034 28800 ft 487 kts 193°